Location: Croissy-Beaubourg
(48.8283°N, 2.6696°E)
Time: 04:09:01
(UTC+00:00)

Cosmos 2082 - Pass Details

Date: 19 August 2022
Orbit: 832 x 856 km, 71.0° (Epoch: 29 September)

Event Time Altitude Azimuth Distance (km) Brightness Sun altitude
Rises 19:47:01 0° 256° (WSW) 3,376 7.6 -8.2°
Reaches altitude 10° 19:50:06 10° 273° (W) 2,447 7.2 -8.7°
Maximum altitude 19:54:13 20° 320° (NW) 1,830 6.5 -9.2°
Drops below altitude 10° 19:58:21 10° 8° (N) 2,464 6.5 -9.8°
Sets 20:01:29 0° 24° (NNE) 3,407 7.0 -10.3°
